STARLINK-31710, 59378

Orbit data source: Space-Track

STARLINK-31710, 59378 is a payload satellite owned by SpaceX/Seattle (US) in LEO that was launched on Tue, 02 Apr 2024 UTC via an FALCON 9 launch vehicle from the Air Force Western Test Range (AFWTR). Payload-class satellites include a variety of spacecraft equipped with specific instruments for various scientific and technological missions. These include communications satellites like Starlink; space stations such as the ISS; scientific satellites like the Hubble; Earth observation satellites from companies like Planet Labs, Umbra, and HawkEye 360; GPS; miniature CubeSats for education and research; and military/defense satellites.

Loading next visibility...
Identifier
59378, 2024-062E
Orbit
LEO
Country
Flag of USUS
Related business
Manufacturer
SpaceX/Seattle
Mission
Operational Commercial Communications
Bus & Motor
STARLINK V2M, Unknown motor
Mass
730 kg wet, ~700 kg dry
Launch date (UTC)
2024-04-02 (2 years ago)
Launch vehicle
FALCON 9
Launch site
Air Force Western Test Range (AFWTR)
Object type
Payload
Rocket body
Debris
Shape & HBR
Box + 2 Pan, 17.7 m
Radar Cross Section
33.884 m², Large (>1 m²)

Expand to show TLE details & history
Last TLE update: 2 days ago

TLE from 2 days ago
0 STARLINK-31710
1 59378U 24062E   26171.19680173  .00004452  00000-0  14285-3 0  9996
2 59378  53.1604 138.9653 0001019  95.2436 264.8683 15.34390640125334
Epoch: 2026-06-20T04:43Z
TLE epoch observation values (Epoch: 2026-06-20T04:43:23.669Z)
Latitude
-0.00001°
Longitude
159.70178°
Altitude
463.695 km
Speed
7.636 km/s
True Right ascension
09h 15m 51s
True Declination
0° 00' 00"
Sunlit
Object was in daylight at epoch
Visualization orbit readout
Latitude
Unknown
Longitude
Unknown
Altitude
Unknown
Speed
Unknown
Apparent Right ascension
Unknown
Apparent Declination
Unknown
Sunlit
N/A
Visualization observer readout
Local Sidereal Time
21:27:39
Azimuth
Unknown
Elevation
Unknown
Doppler factor
Unknown
Orbital elements
Apogee altitude
463.685 km
Perigee altitude
462.291 km
Semi-major axis
6,841.125 km
Eccentricity
0.0001
Inclination
53.1604°
RAAN
138.9653°
Arg. of periapsis
95.2436°
True anomaly
264.85667°
Mean anomaly
264.8683°
Eccentric anomaly
264.86249°
Mean motion
3.83576 °/min
Orbital period
93.85 mins
BSTAR
0.00014285
Loading maneuver chart data...
Computing Atmospheric mass density...
Loading historical data...
Loading historical data...
Loading historical data...
Loading historical data...
Loading historical data...
Loading historical data...
Loading historical data...

Documentation

Showing up to 5 results
|